Flag for U.S.A. Weather past 2 weeks in Chula Vista, California, U.S.A.

Now
66 °F

Clear.


Feels Like: 66 °F
Forecast: 65 / 83 °F
Wind: 3 mph from Southeast

Location: Brown Field Municipal Airport

Current Time: Aug 29, 2014 at 1:37:33 AM

Latest Report: Aug 29, 2014 at 12:53 AM


Visibility: 10 mi

Pressure: 29.89 "Hg

Humidity: 90%

Dew point: 63 °F

Location of Chula VistaLocation

Historic Weather in Chula Vista — Graph

°F

Chula Vista temperature yesterday

Maximum temperature yesterday: 90 °F (at 10:53 AM)
Minimum temperature yesterday: 67 °F (at 3:53 AM)
Average temperature yesterday: 77 °F

Past Weeks' High & Low Weather Summary

 TemperatureHumidityPressure
High90 °F (Aug 27, 12:53 PM)97% (Aug 18, 12:53 AM)30.02 "Hg (Aug 18, 12:53 AM)
Low59 °F (Aug 23, 5:53 AM)28% (Aug 28, 9:53 AM)29.81 "Hg (Aug 18, 4:53 PM)
Average72 °F70%29.92 "Hg
* Reported Aug 13 11:53 PM — Aug 28 11:53 PM, Chula Vista, Weather by CustomWeather, © 2014

Note: Actual official high and low records may vary slightly from our data, if they occured in-between our weather recording intervals... More about our weather records

Advertising

Chula Vista weather history for previous 24 hours

 ConditionsComfort  
Time TempWeatherWind HumidityBarometerVisibility
11:53 PM
Aug 28
69 °FClear.No wind87%29.90 "Hg10 mi
10:53 PM69 °FClear.5 mph79%29.91 "Hg10 mi
9:53 PM68 °FClear.No wind78%29.91 "Hg10 mi
8:53 PM72 °FClear.3 mph68%29.90 "Hg10 mi
7:53 PM75 °FSunny.5 mph60%29.90 "Hg10 mi
6:53 PM79 °FSunny.8 mph48%29.90 "Hg10 mi
5:53 PM82 °FSunny.9 mph49%29.89 "Hg10 mi
4:53 PM83 °FSunny.7 mph48%29.90 "Hg10 mi
3:53 PM85 °FSunny.9 mph43%29.90 "Hg10 mi
2:53 PM86 °FSunny.13 mph42%29.91 "Hg10 mi
1:53 PM88 °FSunny.9 mph36%29.92 "Hg10 mi
12:53 PM87 °FSunny.12 mph35%29.93 "Hg10 mi
11:53 AM87 °FSunny.9 mph37%29.95 "Hg10 mi
10:53 AM90 °FSunny.7 mph32%29.96 "Hg10 mi
9:53 AM87 °FSunny.7 mph28%29.97 "Hg10 mi
8:53 AM83 °FSunny.No wind33%29.98 "Hg10 mi
7:53 AM75 °FSunny.No wind42%29.99 "Hg10 mi
6:53 AM67 °FClear.No wind57%29.99 "Hg10 mi
5:53 AM69 °FClear.No wind49%29.98 "Hg10 mi
4:53 AM69 °FClear.No wind51%29.98 "Hg10 mi
3:53 AM67 °FClear.No wind55%29.98 "Hg10 mi
2:53 AM70 °FClear.No wind53%29.99 "Hg10 mi
1:53 AM72 °FClear.No wind53%30.00 "Hg10 mi
Weather by CustomWeather, © 2014

See weather overviewHow to use our weather pages